TimeCDT,TemperatureF,Dew PointF,Humidity,Sea Level PressureIn,VisibilityMPH,Wind Direction,Wind SpeedMPH,Gust SpeedMPH,PrecipitationIn,Events,Conditions,WindDirDegrees,DateUTC
12:53 AM,88.0,54.0,31,29.87,10.0,SE,5.8,-,N/A,,Clear,130,2013-08-02 05:53:00
1:53 AM,87.1,55.0,33,29.86,10.0,ESE,10.4,-,N/A,,Clear,120,2013-08-02 06:53:00
2:53 AM,86.0,62.1,44,29.86,10.0,ESE,9.2,-,N/A,,Clear,120,2013-08-02 07:53:00
3:53 AM,84.9,64.0,49,29.87,10.0,ESE,9.2,-,N/A,,Clear,120,2013-08-02 08:53:00
4:53 AM,82.9,66.0,56,29.87,10.0,ESE,6.9,-,N/A,,Clear,110,2013-08-02 09:53:00
5:53 AM,81.0,66.0,60,29.88,10.0,East,6.9,-,N/A,,Clear,80,2013-08-02 10:53:00
6:53 AM,80.1,66.9,64,29.88,10.0,East,5.8,-,N/A,,Clear,100,2013-08-02 11:53:00
7:53 AM,80.1,66.9,64,29.91,10.0,East,9.2,-,N/A,,Clear,100,2013-08-02 12:53:00
8:53 AM,82.0,66.9,60,29.92,10.0,SE,6.9,-,N/A,,Clear,130,2013-08-02 13:53:00
9:53 AM,84.0,66.0,55,29.93,10.0,SE,9.2,-,N/A,,Clear,140,2013-08-02 14:53:00
10:53 AM,87.1,66.9,51,29.93,10.0,SE,8.1,-,N/A,,Clear,140,2013-08-02 15:53:00
11:53 AM,91.0,66.9,45,29.92,10.0,SE,8.1,-,N/A,,Clear,140,2013-08-02 16:53:00
12:53 PM,93.9,64.0,37,29.89,10.0,SSE,9.2,-,N/A,,Clear,160,2013-08-02 17:53:00
1:53 PM,98.1,61.0,29,29.87,10.0,SSE,9.2,-,N/A,,Clear,160,2013-08-02 18:53:00
2:53 PM,99.0,55.9,24,29.85,10.0,SE,9.2,-,N/A,,Clear,140,2013-08-02 19:53:00
3:53 PM,100.0,54.0,21,29.82,10.0,SE,10.4,-,N/A,,Clear,130,2013-08-02 20:53:00
4:53 PM,100.9,54.0,21,29.81,10.0,SE,15.0,-,N/A,,Clear,140,2013-08-02 21:53:00
5:53 PM,100.9,55.0,22,29.79,10.0,ESE,12.7,17.3,N/A,,Clear,120,2013-08-02 22:53:00
6:53 PM,100.9,54.0,21,29.79,10.0,SE,13.8,-,N/A,,Clear,140,2013-08-02 23:53:00
7:53 PM,99.0,55.0,23,29.80,10.0,SE,10.4,-,N/A,,Clear,140,2013-08-03 00:53:00
8:53 PM,97.0,55.9,25,29.80,10.0,SE,6.9,-,N/A,,Clear,130,2013-08-03 01:53:00
9:53 PM,95.0,57.0,28,29.81,10.0,ESE,9.2,-,N/A,,Clear,110,2013-08-03 02:53:00
10:53 PM,93.0,55.9,29,29.83,10.0,ESE,9.2,-,N/A,,Clear,110,2013-08-03 03:53:00
11:53 PM,91.0,55.9,30,29.85,10.0,ESE,9.2,-,N/A,,Clear,110,2013-08-03 04:53:00